STARLINK-4132 (53252 NORAD) Tracking and Keplerian Element Data

This shows tracking and keplerian element data for the satellite.

Feedback or suggestion? Click here.




ElementValue
Catalog53252
NameSTARLINK-4132
Epoch Orbit1074
Epoch Day270.25001157
Epoch Year2022
RAAN88.109
Inclination53.2173
Eccentricity0.000154
Argument of Perigee48.1204
Mean Anonmoly46.3351
Mean Motion15.17457402
Decay Rate-0.01086623
L11 53252U 22086L 22270.25001157 -.01086623 00000+0 -57920-1 0 9990
L22 53252 53.2173 88.1090 0001540 48.1204 46.3351 15.17457402 10745

Live tracking and technical data element details for STARLINK-4132 (NORAD 53252). STARLINK-4132 can be tracked NOW for your location showing map with azimuth and elevation plus other details from your city location.

Track the satellite on the map from your city or location and see movement details for azimuth, elevation, latitude, longitude, range, height, and movement on the map or in text.







IsCatalogInMostPopularTable: catalog: 53252, numindb: 5
Update: records affected: 1



GetName: 53252 STARLINK-4132

Hit Count: updated at: Fri, 30 Sep 2022 04:18:36 GMT